PGT1045 LTFJ-EDDH

Flight info

Callsign PGT1045
Flight time 3h 2m
Altitude 36000
Route TUDBU DCT AMTOV DCT APROB DCT VIKBI DCT TIXIP DCT OLMIP DCT BUDOP DCT FOGRE DCT PATAK DCT HDO DCT SOGMA M748 RARUP RARUP3D
Aircraft A21N/M-SDE2E3FGHIRWXY/LB1

Departure

Time 2026-02-19 11:57
Airport Istanbul Sabiha Gökçen International Airport (LTFJ)

Arrival

Time 2026-02-19 14:59
Airport Hamburg Helmut Schmidt Airport (EDDH)
Time Latitude Longitude Altitude Speed Heading
2026-02-19 10:53 40.90452 29.31681 326 ft 0 kts 154°
2026-02-19 11:48 40.90456 29.31679 326 ft 2 kts 154°
2026-02-19 11:48 40.90472 29.31668 326 ft 3 kts 154°
2026-02-19 11:49 40.90491 29.31656 324 ft 2 kts 154°
2026-02-19 11:49 40.90505 29.31647 323 ft 3 kts 138°
2026-02-19 11:49 40.90514 29.31629 323 ft 3 kts 93°
2026-02-19 11:49 40.90511 29.31605 325 ft 3 kts 67°
2026-02-19 11:50 40.90507 29.31592 325 ft 1 kts 64°
2026-02-19 11:50 40.90506 29.31589 326 ft 0 kts 64°
2026-02-19 11:52 40.90506 29.31590 323 ft 1 kts 64°
2026-02-19 11:52 40.90513 29.31610 326 ft 4 kts 64°
2026-02-19 11:53 40.90529 29.31655 326 ft 7 kts 64°
2026-02-19 11:53 40.90556 29.31728 325 ft 10 kts 64°
2026-02-19 11:53 40.90590 29.31820 326 ft 12 kts 64°
2026-02-19 11:53 40.90611 29.31894 324 ft 8 kts 98°
2026-02-19 11:54 40.90570 29.31947 324 ft 9 kts 151°
2026-02-19 11:54 40.90507 29.31987 324 ft 10 kts 152°
2026-02-19 11:54 40.90490 29.32074 324 ft 12 kts 68°
2026-02-19 11:55 40.90571 29.32297 325 ft 15 kts 64°
2026-02-19 11:55 40.90578 29.32413 325 ft 12 kts 127°
2026-02-19 11:55 40.90542 29.32448 325 ft 2 kts 155°
2026-02-19 11:55 40.90525 29.32458 323 ft 4 kts 155°
2026-02-19 11:56 40.90483 29.32483 323 ft 8 kts 156°
2026-02-19 11:56 40.90412 29.32435 324 ft 12 kts 245°
2026-02-19 11:56 40.90260 29.32019 325 ft 86 kts 244°
2026-02-19 11:57 40.89901 29.31055 325 ft 144 kts 244°
2026-02-19 11:57 40.89437 29.29782 738 ft 153 kts 243°
2026-02-19 11:57 40.88947 29.28507 1325 ft 157 kts 242°
2026-02-19 11:57 40.88455 29.27147 1809 ft 172 kts 244°
2026-02-19 11:58 40.87914 29.25629 2324 ft 192 kts 244°
2026-02-19 11:58 40.87313 29.23952 2842 ft 215 kts 244°
2026-02-19 11:58 40.86638 29.22078 3399 ft 234 kts 244°
2026-02-19 11:58 40.85934 29.20127 4225 ft 240 kts 244°
2026-02-19 11:59 40.85209 29.18118 5138 ft 243 kts 245°
2026-02-19 11:59 40.84478 29.16093 6040 ft 246 kts 245°
2026-02-19 11:59 40.83728 29.14018 6930 ft 250 kts 245°
2026-02-19 11:59 40.82970 29.11925 7606 ft 260 kts 245°
2026-02-19 12:00 40.82165 29.09722 8436 ft 265 kts 245°
2026-02-19 12:00 40.80551 29.05319 10153 ft 272 kts 246°
2026-02-19 12:00 40.79694 29.02974 10547 ft 295 kts 247°
2026-02-19 12:01 40.78769 29.00436 10863 ft 318 kts 247°
2026-02-19 12:01 40.77772 28.97715 11147 ft 340 kts 247°
2026-02-19 12:01 40.76782 28.94787 11409 ft 358 kts 253°
2026-02-19 12:01 40.76200 28.91550 11790 ft 366 kts 267°
2026-02-19 12:02 40.76219 28.88192 12389 ft 367 kts 276°
2026-02-19 12:02 40.76334 28.85960 12814 ft 368 kts 276°
2026-02-19 12:02 40.76503 28.82584 13436 ft 370 kts 276°
2026-02-19 12:02 40.76637 28.79182 14033 ft 372 kts 275°
2026-02-19 12:03 40.76903 28.75788 14580 ft 371 kts 284°
2026-02-19 12:03 40.77809 28.72612 15101 ft 371 kts 299°
2026-02-19 12:03 40.79323 28.69860 15614 ft 373 kts 313°
2026-02-19 12:03 40.81348 28.67698 16099 ft 377 kts 325°
2026-02-19 12:04 40.83602 28.65972 16565 ft 380 kts 328°
2026-02-19 12:04 40.88252 28.62515 17486 ft 383 kts 327°
2026-02-19 12:04 40.90571 28.60762 17939 ft 384 kts 327°
2026-02-19 12:05 40.92867 28.59012 18354 ft 386 kts 327°
2026-02-19 12:05 40.95189 28.57228 18782 ft 387 kts 327°
2026-02-19 12:05 40.97523 28.55422 19193 ft 389 kts 327°
2026-02-19 12:05 40.99865 28.53604 19600 ft 390 kts 327°
2026-02-19 12:06 41.02217 28.51787 19998 ft 392 kts 327°
2026-02-19 12:06 41.04585 28.49977 20403 ft 394 kts 327°
2026-02-19 12:06 41.06961 28.48143 20798 ft 395 kts 327°
2026-02-19 12:06 41.09342 28.46302 21194 ft 397 kts 327°
2026-02-19 12:07 41.11739 28.44445 21593 ft 399 kts 327°
2026-02-19 12:07 41.14148 28.42584 21919 ft 404 kts 326°
2026-02-19 12:07 41.16599 28.40683 22155 ft 411 kts 326°
2026-02-19 12:07 41.19082 28.38754 22498 ft 415 kts 326°
2026-02-19 12:08 41.21578 28.36819 22893 ft 417 kts 326°
2026-02-19 12:08 41.26617 28.32912 23713 ft 421 kts 326°
2026-02-19 12:08 41.29128 28.30960 24093 ft 424 kts 326°
2026-02-19 12:09 41.31675 28.28977 24484 ft 426 kts 325°
2026-02-19 12:09 41.34242 28.26971 24893 ft 427 kts 325°
2026-02-19 12:09 41.36797 28.24977 25427 ft 424 kts 325°
2026-02-19 12:09 41.39339 28.22993 25976 ft 422 kts 325°
2026-02-19 12:10 41.41869 28.21015 26510 ft 419 kts 325°
2026-02-19 12:10 41.44375 28.19053 27039 ft 416 kts 325°
2026-02-19 12:10 41.46864 28.17099 27530 ft 414 kts 325°
2026-02-19 12:10 41.49342 28.15151 28010 ft 412 kts 325°
2026-02-19 12:11 41.51773 28.13242 28467 ft 409 kts 325°
2026-02-19 12:11 41.54228 28.11318 28971 ft 406 kts 325°
2026-02-19 12:11 41.56645 28.09416 29417 ft 403 kts 325°
2026-02-19 12:11 41.59059 28.07514 29826 ft 402 kts 324°
2026-02-19 12:12 41.61462 28.05623 30246 ft 400 kts 324°
2026-02-19 12:12 41.66221 28.01873 31086 ft 397 kts 324°
2026-02-19 12:12 41.68595 27.99998 31501 ft 395 kts 324°
2026-02-19 12:13 41.70963 27.98129 31905 ft 393 kts 324°
2026-02-19 12:13 41.73311 27.96269 32286 ft 391 kts 324°
2026-02-19 12:13 41.75616 27.94442 32668 ft 389 kts 324°
2026-02-19 12:13 41.77970 27.92575 33026 ft 387 kts 324°
2026-02-19 12:14 41.80251 27.90761 33384 ft 385 kts 324°
2026-02-19 12:14 41.82554 27.88936 33723 ft 383 kts 324°
2026-02-19 12:14 41.84842 27.87121 34013 ft 382 kts 324°
2026-02-19 12:14 41.87135 27.85292 34292 ft 381 kts 324°
2026-02-19 12:15 41.89410 27.83476 34537 ft 381 kts 324°
2026-02-19 12:15 41.91698 27.81652 34748 ft 382 kts 324°
2026-02-19 12:15 41.93980 27.79834 34928 ft 382 kts 324°
2026-02-19 12:15 41.96225 27.77947 35123 ft 380 kts 320°
2026-02-19 12:16 41.98248 27.75673 35289 ft 378 kts 313°
2026-02-19 12:16 42.02012 27.70716 35645 ft 379 kts 312°
2026-02-19 12:16 42.03882 27.68229 35810 ft 379 kts 312°
2026-02-19 12:17 42.05763 27.65746 35973 ft 379 kts 312°
2026-02-19 12:17 42.07649 27.63265 36124 ft 380 kts 312°
2026-02-19 12:17 42.09546 27.60765 36172 ft 383 kts 312°
2026-02-19 12:18 42.13337 27.55775 36139 ft 383 kts 312°
2026-02-19 12:18 42.17142 27.50755 36114 ft 383 kts 312°
2026-02-19 12:19 42.20941 27.45731 36113 ft 383 kts 312°
2026-02-19 12:19 42.24741 27.40689 36110 ft 382 kts 312°
2026-02-19 12:20 42.28529 27.35655 36117 ft 382 kts 312°
2026-02-19 12:20 42.34219 27.28083 36110 ft 382 kts 312°
2026-02-19 12:21 42.37976 27.23070 36115 ft 382 kts 311°
2026-02-19 12:21 42.41773 27.17996 36116 ft 382 kts 312°
2026-02-19 12:22 42.45532 27.12964 36112 ft 382 kts 312°
2026-02-19 12:22 42.49166 27.08085 36114 ft 382 kts 312°
2026-02-19 12:23 42.52932 27.03030 36112 ft 382 kts 311°
2026-02-19 12:23 42.56702 26.97956 36112 ft 382 kts 311°
2026-02-19 12:24 42.62340 26.90356 36101 ft 382 kts 311°
2026-02-19 12:25 42.66108 26.85266 36098 ft 382 kts 311°
2026-02-19 12:25 42.69861 26.80175 36102 ft 382 kts 311°
2026-02-19 12:26 42.73622 26.75077 36102 ft 382 kts 311°
2026-02-19 12:26 42.77395 26.69952 36091 ft 382 kts 311°
2026-02-19 12:27 42.81140 26.64844 36098 ft 382 kts 311°
2026-02-19 12:27 42.84907 26.59710 36108 ft 382 kts 311°
2026-02-19 12:28 42.88629 26.54618 36100 ft 381 kts 311°
2026-02-19 12:28 42.94243 26.46940 36091 ft 381 kts 311°
2026-02-19 12:29 42.97979 26.41797 36085 ft 381 kts 311°
2026-02-19 12:29 43.01711 26.36672 36088 ft 380 kts 311°
2026-02-19 12:30 43.05440 26.31521 36092 ft 380 kts 311°
2026-02-19 12:30 43.09167 26.26380 36094 ft 380 kts 311°
2026-02-19 12:31 43.12891 26.21226 36098 ft 380 kts 311°
2026-02-19 12:31 43.16572 26.16096 36098 ft 379 kts 311°
2026-02-19 12:32 43.22116 26.08346 36070 ft 379 kts 310°
2026-02-19 12:33 43.25770 26.03193 36084 ft 378 kts 310°
2026-02-19 12:33 43.29439 25.97979 36072 ft 378 kts 310°
2026-02-19 12:34 43.33098 25.92788 36077 ft 380 kts 310°
2026-02-19 12:34 43.36761 25.87573 36080 ft 379 kts 310°
2026-02-19 12:35 43.40420 25.82377 36085 ft 379 kts 310°
2026-02-19 12:35 43.44082 25.77167 36079 ft 379 kts 310°
2026-02-19 12:36 43.47743 25.71947 36083 ft 379 kts 310°
2026-02-19 12:36 43.53226 25.64125 36067 ft 378 kts 310°
2026-02-19 12:37 43.56872 25.58916 36066 ft 378 kts 310°
2026-02-19 12:37 43.60530 25.53654 36067 ft 379 kts 310°
2026-02-19 12:38 43.64184 25.48404 36057 ft 379 kts 310°
2026-02-19 12:38 43.67830 25.43147 36063 ft 379 kts 310°
2026-02-19 12:39 43.71436 25.37935 36063 ft 379 kts 309°
2026-02-19 12:39 43.75076 25.32664 36056 ft 379 kts 309°
2026-02-19 12:40 43.80553 25.24728 36065 ft 379 kts 309°
2026-02-19 12:41 43.84209 25.19398 36061 ft 380 kts 309°
2026-02-19 12:41 43.87850 25.14087 36055 ft 380 kts 309°
2026-02-19 12:42 43.91473 25.08817 36052 ft 380 kts 309°
2026-02-19 12:42 43.95116 25.03498 36061 ft 380 kts 309°
2026-02-19 12:43 43.98898 24.98342 36056 ft 383 kts 313°
2026-02-19 12:43 44.02930 24.93477 36057 ft 384 kts 314°
2026-02-19 12:44 44.06941 24.88633 36045 ft 384 kts 313°
2026-02-19 12:44 44.12974 24.81306 36046 ft 384 kts 313°
2026-02-19 12:45 44.16992 24.76414 36040 ft 384 kts 313°
2026-02-19 12:45 44.21025 24.71507 36041 ft 384 kts 313°
2026-02-19 12:46 44.25050 24.66598 36037 ft 384 kts 313°
2026-02-19 12:46 44.29072 24.61680 36038 ft 384 kts 313°
2026-02-19 12:47 44.33097 24.56747 36047 ft 385 kts 313°
2026-02-19 12:47 44.37099 24.51834 36031 ft 385 kts 313°
2026-02-19 12:48 44.43026 24.44274 36026 ft 384 kts 313°
2026-02-19 12:49 44.47020 24.39309 36017 ft 385 kts 313°
2026-02-19 12:49 44.50367 24.35205 36012 ft 385 kts 314°
2026-02-19 12:50 44.54465 24.30346 36016 ft 385 kts 313°
2026-02-19 12:50 44.58501 24.25405 36019 ft 384 kts 313°
2026-02-19 12:51 44.62485 24.20467 36020 ft 384 kts 313°
2026-02-19 12:51 44.66493 24.15479 36022 ft 384 kts 313°
2026-02-19 12:52 44.70491 24.10495 36014 ft 383 kts 313°
2026-02-19 12:52 44.76474 24.03018 36014 ft 383 kts 313°
2026-02-19 12:53 44.80461 23.98024 36013 ft 383 kts 313°
2026-02-19 12:53 44.84430 23.93044 36015 ft 385 kts 312°
2026-02-19 12:54 44.88423 23.88023 36013 ft 384 kts 312°
2026-02-19 12:54 44.92413 23.82998 36007 ft 385 kts 312°
2026-02-19 12:55 44.96407 23.77958 35989 ft 385 kts 312°
2026-02-19 12:55 45.00394 23.72915 35988 ft 385 kts 312°
2026-02-19 12:56 45.06379 23.65329 35979 ft 385 kts 312°
2026-02-19 12:57 45.10371 23.60255 35973 ft 385 kts 312°
2026-02-19 12:57 45.14305 23.55112 35970 ft 384 kts 311°
2026-02-19 12:58 45.18225 23.49975 35957 ft 384 kts 311°
2026-02-19 12:58 45.22181 23.44889 35952 ft 384 kts 311°
2026-02-19 12:59 45.26140 23.39815 35953 ft 383 kts 311°
2026-02-19 12:59 45.30089 23.34747 35938 ft 383 kts 311°
2026-02-19 13:00 45.34050 23.29649 35963 ft 384 kts 311°
2026-02-19 13:00 45.39975 23.22017 35945 ft 384 kts 311°
2026-02-19 13:01 45.43924 23.16906 35940 ft 383 kts 311°
2026-02-19 13:01 45.47849 23.11756 35934 ft 384 kts 311°
2026-02-19 13:02 45.51795 23.06603 35931 ft 384 kts 311°
2026-02-19 13:02 45.55725 23.01451 35931 ft 384 kts 311°
2026-02-19 13:03 45.59640 22.96316 35927 ft 385 kts 311°
2026-02-19 13:03 45.63598 22.91142 35916 ft 385 kts 311°
2026-02-19 13:04 45.69523 22.83408 35914 ft 385 kts 311°
2026-02-19 13:05 45.73473 22.78240 35916 ft 384 kts 311°
2026-02-19 13:05 45.77399 22.73054 35917 ft 382 kts 308°
2026-02-19 13:06 45.80971 22.67434 35922 ft 381 kts 307°
2026-02-19 13:06 45.84742 22.62139 35908 ft 384 kts 310°
2026-02-19 13:07 45.88833 22.57146 35904 ft 389 kts 315°
2026-02-19 13:07 45.93020 22.52274 35897 ft 385 kts 311°
2026-02-19 13:08 45.96996 22.47123 35900 ft 385 kts 310°
2026-02-19 13:08 46.02887 22.39281 35891 ft 384 kts 310°
2026-02-19 13:09 46.06799 22.34047 35887 ft 384 kts 310°
2026-02-19 13:09 46.10661 22.28796 35886 ft 383 kts 309°
2026-02-19 13:10 46.14542 22.23521 35889 ft 383 kts 310°
2026-02-19 13:10 46.18449 22.18266 35887 ft 384 kts 310°
2026-02-19 13:11 46.22361 22.13008 35887 ft 383 kts 310°
2026-02-19 13:11 46.26266 22.07749 35887 ft 384 kts 310°
2026-02-19 13:12 46.32093 21.99869 35890 ft 384 kts 310°
2026-02-19 13:13 46.35989 21.94578 35888 ft 384 kts 309°
2026-02-19 13:13 46.39878 21.89281 35892 ft 384 kts 309°
2026-02-19 13:14 46.43779 21.83967 35892 ft 384 kts 309°
2026-02-19 13:14 46.47672 21.78645 35891 ft 384 kts 309°
2026-02-19 13:15 46.51564 21.73319 35890 ft 384 kts 309°
2026-02-19 13:15 46.55449 21.67972 35893 ft 385 kts 309°
2026-02-19 13:16 46.59348 21.62619 35891 ft 385 kts 309°
2026-02-19 13:16 46.65156 21.54615 35890 ft 385 kts 309°
2026-02-19 13:17 46.69012 21.49177 35888 ft 383 kts 306°
2026-02-19 13:17 46.72541 21.43373 35889 ft 382 kts 304°
2026-02-19 13:18 46.76037 21.37537 35889 ft 382 kts 304°
2026-02-19 13:18 46.79545 21.31697 35887 ft 383 kts 304°
2026-02-19 13:19 46.83065 21.25811 35882 ft 383 kts 304°
2026-02-19 13:19 46.86549 21.19971 35882 ft 384 kts 304°
2026-02-19 13:20 46.91814 21.11146 35881 ft 384 kts 304°
2026-02-19 13:21 46.95326 21.05230 35878 ft 384 kts 304°
2026-02-19 13:21 46.98832 20.99316 35871 ft 384 kts 304°
2026-02-19 13:22 47.02326 20.93401 35870 ft 384 kts 304°
2026-02-19 13:22 47.05801 20.87511 35868 ft 385 kts 304°
2026-02-19 13:23 47.09307 20.81558 35864 ft 385 kts 304°
2026-02-19 13:23 47.12798 20.75616 35861 ft 385 kts 304°
2026-02-19 13:24 47.16302 20.69643 35853 ft 385 kts 304°
2026-02-19 13:25 47.23266 20.57720 35848 ft 386 kts 303°
2026-02-19 13:25 47.26779 20.51691 35857 ft 386 kts 303°
2026-02-19 13:26 47.30248 20.45720 35847 ft 386 kts 303°
2026-02-19 13:26 47.33732 20.39705 35838 ft 386 kts 303°
2026-02-19 13:27 47.37214 20.33685 35845 ft 387 kts 303°
2026-02-19 13:27 47.40706 20.27631 35841 ft 387 kts 303°
2026-02-19 13:28 47.44201 20.21569 35853 ft 387 kts 303°
2026-02-19 13:28 47.49431 20.12468 35850 ft 387 kts 303°
2026-02-19 13:29 47.52974 20.06428 35847 ft 388 kts 304°
2026-02-19 13:29 47.56511 20.00443 35845 ft 388 kts 304°
2026-02-19 13:30 47.60065 19.94402 35837 ft 389 kts 303°
2026-02-19 13:30 47.63612 19.88356 35837 ft 389 kts 304°
2026-02-19 13:31 47.67164 19.82295 35846 ft 389 kts 303°
2026-02-19 13:31 47.70704 19.76214 35844 ft 389 kts 303°
2026-02-19 13:32 47.76027 19.67073 35834 ft 390 kts 303°
2026-02-19 13:33 47.79555 19.60999 35837 ft 389 kts 303°
2026-02-19 13:33 47.83099 19.54876 35841 ft 390 kts 303°
2026-02-19 13:34 47.86643 19.48749 35838 ft 390 kts 303°
2026-02-19 13:34 47.90174 19.42607 35843 ft 390 kts 303°
2026-02-19 13:35 47.93112 19.37507 35840 ft 390 kts 303°
2026-02-19 13:35 47.97222 19.30347 35838 ft 390 kts 303°
2026-02-19 13:36 48.00180 19.25186 35843 ft 390 kts 303°
2026-02-19 13:36 48.05477 19.15914 35814 ft 393 kts 303°
2026-02-19 13:37 48.09154 19.09856 35814 ft 396 kts 307°
2026-02-19 13:37 48.13037 19.03958 35813 ft 397 kts 307°
2026-02-19 13:38 48.16909 18.98051 35804 ft 397 kts 307°
2026-02-19 13:38 48.20770 18.92133 35811 ft 397 kts 307°
2026-02-19 13:39 48.24618 18.86218 35821 ft 398 kts 307°
2026-02-19 13:39 48.26545 18.83249 35819 ft 398 kts 307°
2026-02-19 13:40 48.34265 18.71346 35819 ft 398 kts 307°
2026-02-19 13:41 48.38124 18.65371 35824 ft 399 kts 307°
2026-02-19 13:41 48.41969 18.59411 35816 ft 399 kts 307°
2026-02-19 13:42 48.45827 18.53409 35821 ft 398 kts 306°
2026-02-19 13:42 48.49692 18.47392 35818 ft 398 kts 306°
2026-02-19 13:43 48.53521 18.41397 35824 ft 398 kts 306°
2026-02-19 13:43 48.57343 18.35410 35821 ft 397 kts 306°
2026-02-19 13:44 48.61185 18.29381 35891 ft 398 kts 306°
2026-02-19 13:44 48.66963 18.20291 35900 ft 399 kts 306°
2026-02-19 13:45 48.70784 18.14255 35840 ft 399 kts 306°
2026-02-19 13:45 48.74644 18.08150 35825 ft 400 kts 306°
2026-02-19 13:46 48.78488 18.02049 35842 ft 400 kts 306°
2026-02-19 13:46 48.82326 17.95949 35820 ft 402 kts 306°
2026-02-19 13:47 48.86199 17.89774 35823 ft 404 kts 307°
2026-02-19 13:47 48.90058 17.83614 35824 ft 404 kts 306°
2026-02-19 13:48 48.95866 17.74297 35819 ft 405 kts 307°
2026-02-19 13:49 48.99756 17.68058 35829 ft 406 kts 307°
2026-02-19 13:49 49.03643 17.61783 35825 ft 407 kts 307°
2026-02-19 13:50 49.07527 17.55509 35823 ft 408 kts 307°
2026-02-19 13:50 49.11410 17.49220 35828 ft 408 kts 307°
2026-02-19 13:51 49.15280 17.42943 35826 ft 408 kts 307°
2026-02-19 13:51 49.19164 17.36622 35820 ft 408 kts 307°
2026-02-19 13:52 49.23059 17.30264 35837 ft 408 kts 307°
2026-02-19 13:52 49.28875 17.20748 35823 ft 408 kts 307°
2026-02-19 13:53 49.32738 17.14411 35835 ft 409 kts 307°
2026-02-19 13:53 49.36616 17.08030 35826 ft 409 kts 307°
2026-02-19 13:54 49.40497 17.01625 35822 ft 409 kts 307°
2026-02-19 13:54 49.44373 16.95214 35827 ft 409 kts 307°
2026-02-19 13:55 49.48254 16.88779 35823 ft 410 kts 307°
2026-02-19 13:55 49.52132 16.82327 35816 ft 411 kts 307°
2026-02-19 13:56 49.57958 16.72624 35835 ft 411 kts 307°
2026-02-19 13:57 49.61856 16.66106 35833 ft 412 kts 307°
2026-02-19 13:57 49.65723 16.59624 35820 ft 412 kts 307°
2026-02-19 13:58 49.69579 16.53132 35823 ft 413 kts 307°
2026-02-19 13:58 49.73468 16.46588 35829 ft 413 kts 307°
2026-02-19 13:59 49.77346 16.40041 35835 ft 413 kts 307°
2026-02-19 13:59 49.81222 16.33474 35828 ft 413 kts 307°
2026-02-19 14:00 49.85080 16.26886 35836 ft 413 kts 307°
2026-02-19 14:00 49.90908 16.16948 35840 ft 414 kts 308°
2026-02-19 14:01 49.94788 16.10347 35841 ft 414 kts 308°
2026-02-19 14:01 49.98634 16.03764 35841 ft 414 kts 308°
2026-02-19 14:02 50.02502 15.97124 35842 ft 414 kts 307°
2026-02-19 14:02 50.06366 15.90472 35850 ft 413 kts 307°
2026-02-19 14:03 50.10222 15.83820 35846 ft 414 kts 307°
2026-02-19 14:03 50.14072 15.77149 35847 ft 414 kts 307°
2026-02-19 14:04 50.21764 15.63783 35842 ft 414 kts 307°
2026-02-19 14:05 50.25583 15.57107 35839 ft 413 kts 308°
2026-02-19 14:05 50.29418 15.50402 35843 ft 414 kts 307°
2026-02-19 14:06 50.33243 15.43685 35838 ft 412 kts 307°
2026-02-19 14:06 50.37046 15.37007 35839 ft 412 kts 307°
2026-02-19 14:07 50.40866 15.30277 35837 ft 412 kts 307°
2026-02-19 14:07 50.44658 15.23584 35827 ft 412 kts 307°
2026-02-19 14:08 50.50357 15.13464 35833 ft 412 kts 307°
2026-02-19 14:09 50.54155 15.06701 35833 ft 412 kts 307°
2026-02-19 14:09 50.57947 14.99928 35839 ft 412 kts 307°
2026-02-19 14:10 50.61709 14.93204 35844 ft 412 kts 307°
2026-02-19 14:10 50.65493 14.86415 35846 ft 412 kts 307°
2026-02-19 14:11 50.69272 14.79624 35845 ft 411 kts 307°
2026-02-19 14:11 50.73049 14.72819 35849 ft 411 kts 307°
2026-02-19 14:12 50.76813 14.66006 35855 ft 411 kts 307°
2026-02-19 14:12 50.82433 14.55815 35860 ft 411 kts 307°
2026-02-19 14:13 50.86186 14.48977 35854 ft 412 kts 307°
2026-02-19 14:13 50.89947 14.42118 35863 ft 412 kts 307°
2026-02-19 14:14 50.93857 14.35435 35865 ft 415 kts 314°
2026-02-19 14:14 50.98200 14.29458 35871 ft 416 kts 315°
2026-02-19 14:15 51.02576 14.23456 35870 ft 416 kts 315°
2026-02-19 14:15 51.06962 14.17422 35868 ft 416 kts 315°
2026-02-19 14:16 51.13498 14.08382 35881 ft 415 kts 315°
2026-02-19 14:17 51.17853 14.02342 35881 ft 416 kts 315°
2026-02-19 14:17 51.22218 13.96264 35881 ft 419 kts 315°
2026-02-19 14:18 51.26616 13.90132 35883 ft 419 kts 315°
2026-02-19 14:18 51.31010 13.83989 35867 ft 419 kts 315°
2026-02-19 14:19 51.35396 13.77836 35882 ft 419 kts 315°
2026-02-19 14:19 51.39748 13.71714 35891 ft 419 kts 315°
2026-02-19 14:20 51.47744 13.60370 35896 ft 419 kts 315°
2026-02-19 14:21 51.52127 13.54175 35899 ft 419 kts 315°
2026-02-19 14:21 51.56502 13.47971 35913 ft 420 kts 315°
2026-02-19 14:22 51.60877 13.41746 35920 ft 419 kts 315°
2026-02-19 14:22 51.65250 13.35497 35932 ft 419 kts 315°
2026-02-19 14:23 51.69587 13.29286 35931 ft 419 kts 315°
2026-02-19 14:23 51.73947 13.23034 35932 ft 419 kts 315°
2026-02-19 14:24 51.78293 13.16761 35934 ft 420 kts 314°
2026-02-19 14:24 51.84835 13.07305 35931 ft 421 kts 315°
2026-02-19 14:25 51.89174 13.01031 35937 ft 421 kts 315°
2026-02-19 14:25 51.93539 12.94694 35939 ft 421 kts 314°
2026-02-19 14:26 51.97904 12.88337 35939 ft 421 kts 315°
2026-02-19 14:26 52.02263 12.81951 35941 ft 420 kts 315°
2026-02-19 14:27 52.06584 12.75619 35939 ft 418 kts 315°
2026-02-19 14:27 52.10868 12.69322 35940 ft 417 kts 315°
2026-02-19 14:28 52.17320 12.59781 35950 ft 419 kts 315°
2026-02-19 14:29 52.18765 12.57642 35950 ft 419 kts 315°
2026-02-19 14:29 52.22355 12.52349 35950 ft 419 kts 315°
2026-02-19 14:30 52.26693 12.45945 35951 ft 420 kts 315°
2026-02-19 14:30 52.30987 12.39556 35950 ft 420 kts 315°
2026-02-19 14:31 52.35337 12.33068 35951 ft 420 kts 315°
2026-02-19 14:31 52.39628 12.26647 35947 ft 420 kts 315°
2026-02-19 14:32 52.43939 12.20178 35942 ft 420 kts 315°
2026-02-19 14:32 52.50398 12.10450 35869 ft 416 kts 314°
2026-02-19 14:33 52.52525 12.07237 35538 ft 416 kts 314°
2026-02-19 14:33 52.54659 12.04006 35265 ft 416 kts 314°
2026-02-19 14:33 52.56790 12.00780 35008 ft 416 kts 314°
2026-02-19 14:33 52.58918 11.97554 34756 ft 416 kts 315°
2026-02-19 14:34 52.61045 11.94325 34508 ft 416 kts 315°
2026-02-19 14:34 52.63183 11.91103 34258 ft 417 kts 316°
2026-02-19 14:34 52.65416 11.88151 34012 ft 418 kts 319°
2026-02-19 14:34 52.67716 11.85226 33753 ft 417 kts 320°
2026-02-19 14:35 52.70019 11.82314 33511 ft 417 kts 320°
2026-02-19 14:35 52.72318 11.79402 33262 ft 417 kts 319°
2026-02-19 14:35 52.74617 11.76469 33010 ft 417 kts 319°
2026-02-19 14:35 52.76920 11.73532 32760 ft 417 kts 319°
2026-02-19 14:36 52.79220 11.70602 32510 ft 417 kts 319°
2026-02-19 14:36 52.83821 11.64757 32009 ft 417 kts 319°
2026-02-19 14:36 52.86134 11.61832 31757 ft 417 kts 319°
2026-02-19 14:37 52.88435 11.58904 31507 ft 417 kts 319°
2026-02-19 14:37 52.90736 11.55966 31256 ft 418 kts 319°
2026-02-19 14:37 52.93034 11.53006 31005 ft 418 kts 319°
2026-02-19 14:37 52.95322 11.50044 30756 ft 418 kts 319°
2026-02-19 14:38 52.97616 11.47074 30503 ft 418 kts 319°
2026-02-19 14:38 52.99882 11.44150 30053 ft 416 kts 319°
2026-02-19 14:38 53.02165 11.41206 29308 ft 415 kts 319°
2026-02-19 14:38 53.04456 11.38248 28464 ft 417 kts 319°
2026-02-19 14:39 53.06750 11.35285 27598 ft 419 kts 319°
2026-02-19 14:39 53.09063 11.32307 26670 ft 422 kts 320°
2026-02-19 14:39 53.11399 11.29313 25748 ft 424 kts 320°
2026-02-19 14:39 53.13800 11.26461 24846 ft 426 kts 323°
2026-02-19 14:40 53.16239 11.23640 24014 ft 424 kts 323°
2026-02-19 14:40 53.21074 11.18063 22484 ft 420 kts 323°
2026-02-19 14:40 53.23468 11.15294 21993 ft 419 kts 323°
2026-02-19 14:41 53.25832 11.12565 21466 ft 418 kts 323°
2026-02-19 14:41 53.28235 11.09777 20869 ft 423 kts 323°
2026-02-19 14:41 53.30649 11.06971 20269 ft 421 kts 323°
2026-02-19 14:41 53.33046 11.04188 19731 ft 418 kts 324°
2026-02-19 14:42 53.35422 11.01425 19222 ft 415 kts 323°
2026-02-19 14:42 53.37788 10.98666 18719 ft 412 kts 324°
2026-02-19 14:42 53.40138 10.95933 18217 ft 409 kts 324°
2026-02-19 14:42 53.42472 10.93215 17719 ft 407 kts 324°
2026-02-19 14:43 53.44775 10.90524 17215 ft 398 kts 324°
2026-02-19 14:43 53.47013 10.87908 16712 ft 386 kts 324°
2026-02-19 14:43 53.49185 10.85361 16210 ft 375 kts 325°
2026-02-19 14:43 53.51296 10.82879 15770 ft 365 kts 325°
2026-02-19 14:44 53.53348 10.80472 15368 ft 354 kts 325°
2026-02-19 14:44 53.57263 10.75867 14582 ft 331 kts 326°
2026-02-19 14:44 53.59095 10.73709 14195 ft 320 kts 326°
2026-02-19 14:45 53.60914 10.71559 13795 ft 312 kts 326°
2026-02-19 14:45 53.62645 10.69505 13429 ft 303 kts 327°
2026-02-19 14:45 53.64324 10.67416 13047 ft 296 kts 322°
2026-02-19 14:45 53.65826 10.65106 12659 ft 289 kts 319°
2026-02-19 14:46 53.67264 10.62786 12295 ft 283 kts 319°
2026-02-19 14:46 53.68666 10.60514 11940 ft 276 kts 320°
2026-02-19 14:46 53.70036 10.58296 11636 ft 269 kts 320°
2026-02-19 14:46 53.71366 10.56142 11354 ft 262 kts 320°
2026-02-19 14:47 53.72667 10.54043 11086 ft 255 kts 320°
2026-02-19 14:47 53.73920 10.52021 10820 ft 251 kts 321°
2026-02-19 14:47 53.75182 10.49982 10554 ft 251 kts 321°
2026-02-19 14:47 53.76446 10.47939 10281 ft 251 kts 321°
2026-02-19 14:48 53.77708 10.45900 10019 ft 251 kts 321°
2026-02-19 14:48 53.80235 10.41805 9518 ft 251 kts 321°
2026-02-19 14:48 53.81494 10.39754 9301 ft 251 kts 322°
2026-02-19 14:49 53.82742 10.37731 9080 ft 251 kts 322°
2026-02-19 14:49 53.84003 10.35681 8860 ft 251 kts 322°
2026-02-19 14:49 53.85261 10.33633 8635 ft 251 kts 322°
2026-02-19 14:49 53.86515 10.31584 8391 ft 250 kts 322°
2026-02-19 14:50 53.87770 10.29543 8096 ft 249 kts 322°
2026-02-19 14:50 53.88925 10.27334 7765 ft 255 kts 307°
2026-02-19 14:50 53.89480 10.24460 7438 ft 263 kts 277°
2026-02-19 14:50 53.89448 10.21357 7127 ft 263 kts 269°
2026-02-19 14:51 53.89338 10.18269 6810 ft 262 kts 269°
2026-02-19 14:51 53.89235 10.15184 6488 ft 260 kts 269°
2026-02-19 14:51 53.89138 10.12131 6168 ft 259 kts 269°
2026-02-19 14:51 53.89054 10.09128 5846 ft 256 kts 269°
2026-02-19 14:52 53.88972 10.06134 5519 ft 253 kts 269°
2026-02-19 14:52 53.88813 10.00246 4870 ft 246 kts 268°
2026-02-19 14:52 53.88737 9.97358 4556 ft 244 kts 268°
2026-02-19 14:53 53.88529 9.94529 4271 ft 239 kts 249°
2026-02-19 14:53 53.87617 9.92323 4034 ft 223 kts 212°
2026-02-19 14:53 53.86293 9.91164 3831 ft 206 kts 197°
2026-02-19 14:53 53.85007 9.90314 3727 ft 192 kts 196°
2026-02-19 14:54 53.83789 9.89481 3541 ft 185 kts 197°
2026-02-19 14:54 53.82626 9.88636 3332 ft 181 kts 198°
2026-02-19 14:54 53.81475 9.87786 3151 ft 180 kts 199°
2026-02-19 14:54 53.80337 9.86930 3011 ft 179 kts 198°
2026-02-19 14:55 53.79188 9.86154 2973 ft 176 kts 189°
2026-02-19 14:55 53.78035 9.86341 2881 ft 165 kts 153°
2026-02-19 14:55 53.77032 9.87243 2692 ft 162 kts 144°
2026-02-19 14:55 53.76071 9.88209 2457 ft 157 kts 146°
2026-02-19 14:56 53.75147 9.89081 2254 ft 153 kts 147°
2026-02-19 14:56 53.73278 9.90724 1846 ft 140 kts 148°
2026-02-19 14:56 53.72480 9.91416 1625 ft 125 kts 147°
2026-02-19 14:57 53.71700 9.92098 1447 ft 127 kts 148°
2026-02-19 14:57 53.70908 9.92787 1277 ft 128 kts 148°
2026-02-19 14:57 53.70118 9.93472 1110 ft 128 kts 148°
2026-02-19 14:57 53.69326 9.94160 944 ft 127 kts 148°
2026-02-19 14:58 53.68543 9.94847 764 ft 127 kts 148°
2026-02-19 14:58 53.67764 9.95512 595 ft 127 kts 149°
2026-02-19 14:58 53.66977 9.96191 423 ft 127 kts 148°
2026-02-19 14:58 53.66189 9.96877 252 ft 127 kts 149°
2026-02-19 14:59 53.65390 9.97562 103 ft 130 kts 149°
2026-02-19 14:59 53.64651 9.98203 65 ft 99 kts 152°
2026-02-19 14:59 53.64210 9.98585 55 ft 47 kts 153°
2026-02-19 14:59 53.64004 9.98804 52 ft 32 kts 133°
2026-02-19 15:00 53.63897 9.99036 55 ft 18 kts 126°
2026-02-19 15:00 53.63745 9.99388 54 ft 17 kts 126°
2026-02-19 15:00 53.63695 9.99503 54 ft 11 kts 124°
2026-02-19 15:01 53.63647 9.99616 53 ft 13 kts 126°
2026-02-19 15:01 53.63621 9.99675 55 ft 0 kts 126°
2026-02-19 15:01 53.63611 9.99699 53 ft 6 kts 127°
2026-02-19 15:01 53.63572 9.99792 54 ft 13 kts 126°
2026-02-19 15:02 53.63515 9.99923 54 ft 15 kts 126°
2026-02-19 15:02 53.63468 10.00031 54 ft 9 kts 126°
2026-02-19 15:02 53.63434 10.00111 54 ft 2 kts 125°
2026-02-19 15:02 53.63431 10.00120 54 ft 1 kts 120°
2026-02-19 15:03 53.63426 10.00168 54 ft 5 kts 75°
2026-02-19 15:03 53.63439 10.00212 54 ft 7 kts 59°
2026-02-19 15:03 53.63450 10.00257 54 ft 2 kts 93°
2026-02-19 15:03 53.63450 10.00299 54 ft 5 kts 86°
2026-02-19 15:04 53.63450 10.00307 54 ft 0 kts 86°